Simultaneous Nadir Overpasses (SNOs) Predictions

Prediction of SNOs between GOES-16 and AQUA Satellite Orbit:

Table of predicted SNOs for the next 14.0 days since TLE Epoch: 11/9/2024
Index Date Time (GOES-16) GOES-16 Lat,Lon AQUA Lat,Lon Distance(km) Time Diff (sec)
1 11/09/2024 07:10:05 0.01, -75.20 -0.55, -72.48 309.10 80
2 11/09/2024 19:29:54 -0.01, -75.21 -0.44, -77.28 234.59 80
3 11/11/2024 19:14:11 -0.01, -75.23 0.55, -72.78 278.90 80
4 11/12/2024 07:33:49 0.00, -75.22 0.52, -77.52 261.89 80
5 11/14/2024 07:12:43 0.01, -75.24 -0.46, -73.01 253.50 80
6 11/14/2024 19:32:30 -0.00, -75.26 -0.55, -77.80 289.27 80
7 11/16/2024 19:16:41 -0.01, -75.28 0.44, -73.28 227.81 80
8 11/17/2024 07:36:17 0.00, -75.28 0.60, -78.02 311.97 80
9 11/19/2024 07:15:06 0.00, -75.31 -0.38, -73.49 206.77 80
10 11/19/2024 19:34:50 -0.00, -75.32 -0.64, -78.26 335.12 80
11 11/21/2024 19:18:55 -0.00, -75.36 0.35, -73.72 186.14 80
12 11/22/2024 07:38:31 -0.00, -75.36 0.67, -78.46 352.26 80
